{"data":{"norad_id":55369,"intl_designator":"2023-013AQ","name":"STARLINK-5644","alt_names":[],"object_type":"PAYLOAD","status":"ACTIVE","operator":null,"country":"US","launch_date":"2023-01-26","launch_site_code":"AFETR","launch_vehicle":null,"mission":null,"orbit_class":"UNKNOWN","rcs_meters":null,"size_class":null,"mass_kg":null,"dimensions":null,"purposes":["comms"],"wikipedia_slug":null,"has_3d_model":false,"image_url":null,"decayed_at":null,"tle_current":{"epoch":"2026-09-20T03:09:03.419712Z","epoch_age_seconds":128565,"freshness":"FRESH","line1":"1 55369U 23013AQ  26263.13128958 -.00000902  00000+0 -23266-4 0  9998","line2":"2 55369  43.0006 303.1661 0001174 264.5841  95.4877 15.27573020201203","mean_motion":15.2757302,"eccentricity":0.0001174,"inclination_deg":43.0006,"raan_deg":303.1661,"arg_perigee_deg":264.5841,"mean_anomaly_deg":95.4877,"bstar":-2.3266e-5,"rev_number":20120,"period_min":94.267179450446,"perigee_km":482.26449104886,"apogee_km":483.8755024517,"semimajor_km":6861.2069967503,"source":"CELESTRAK","updated_at":"2026-09-21T09:00:33.208839Z"}}}